[[{"header":{"parameterUnit":"m.s-1","parameterCategory":1,"la1":30.2991,"la2":30.254,"lo1":-89.0895,"lo2":-89.0444,"dy":0.0017,"dx":0.0017,"nx":28,"ny":28,"refTime":"2025-03-24T09:00:00:Z","depth":0,"parameterNumber":2,"parameterNumberName":"U-component_of_WINDS"},"data":[0,0,0,0,0,0,0,0,0,0,0,0,0,0,0,0,0,0,0,0,0,0,0,0,0,0,0,0,0,0,0,0,0,0,0,0,0,0,0,0,0,0,0,0,0,0,0,0,0,0,0,0,0,0,0,0,0,0,-2.2875,-2.2873,0,-2.267,-2.2667,-2.2665,-2.2532,-2.2531,-2.253,-2.253,-2.2308,-2.2303,-2.2298,0,0,0,0,0,0,0,0,0,0,0,0,0,-2.3146,-2.3142,-2.2875,-2.2873,-2.287,-2.267,-2.2667,-2.2664,-2.2532,-2.2531,-2.253,-2.2529,-2.231,-2.2304,-2.2298,0,0,0,0,0,0,0,0,0,0,0,0,0,-2.2993,-2.3141,-2.2876,-2.278,-2.277,-2.2671,-2.2667,-2.2664,-2.2532,-2.2531,-2.253,-2.2529,-2.2312,-2.2304,-2.2297,-2.2273,0,0,-2.2273,-2.227,0,0,0,0,0,0,0,0,-2.3002,-2.2983,-2.2797,-2.2787,-2.2775,-2.2625,-2.2681,-2.2532,-2.2533,-2.2622,-2.253,-2.2528,-2.2414,-2.2398,-2.2362,-2.2263,-2.2253,-2.2273,-2.2268,-2.2265,-2.2262,0,0,0,0,0,0,0,-2.3013,-2.2991,-2.2793,-2.2794,-2.2781,-2.2745,-2.2722,-2.2653,-2.2527,-2.2614,-2.2604,-2.2582,-2.2408,-2.2369,-2.2355,-2.225,-2.2273,-2.2266,-2.2261,-2.2258,-2.2125,-2.2126,0,0,0,0,0,0,-2.304,-2.3001,-2.28,-2.2787,-2.2888,-2.2742,-2.2716,-2.2674,-2.2527,-2.2504,-2.2583,-2.2577,-2.2383,-2.2365,-2.2347,-2.2312,-2.2265,-2.2257,-2.2253,-2.2124,-2.2125,-2.2126,0,0,0,0,0,0,-2.3046,-2.3023,-2.2808,-2.2892,-2.2862,-2.2738,-2.2693,-2.2671,-2.2633,-2.2504,-2.248,-2.2568,-2.2381,-2.2358,-2.2294,-2.2302,-2.2254,-2.2247,-2.2123,-2.2124,-2.2126,-2.224,0,0,0,0,0,0,-2.3055,-2.3026,-2.3017,-2.2893,-2.2858,-2.2761,-2.2693,-2.2668,-2.2621,-2.261,-2.2483,-2.2461,-2.2379,-2.2306,-2.2287,-2.2291,-2.2241,-2.2121,-2.2123,-2.2125,-2.2235,-2.2246,-2.2255,0,0,0,0,0,-2.3065,-2.3054,-2.3017,-2.2994,-2.2845,-2.2762,-2.2742,-2.265,-2.2622,-2.2611,-2.253,-2.2465,-2.2305,-2.2301,-2.2277,-2.2279,-2.212,-2.2123,-2.2125,-2.2231,-2.2244,-2.2254,0,0,0,0,0,0,-2.3178,-2.3036,-2.2993,-2.2943,-2.2867,-2.274,-2.2723,-2.2666,-2.2592,-2.2585,-2.2472,-2.2444,-2.2392,-2.2329,-2.2327,-2.2251,-2.2205,-2.2203,-2.2294,-2.2305,-2.2314,-2.233,-2.2234,0,0,0,0,0,-2.3198,-2.3146,-2.3023,-2.2991,-2.2955,-2.2847,-2.2807,-2.2744,-2.2658,-2.2624,-2.2537,-2.2454,-2.2385,-2.2341,-2.227,-2.2226,-2.2197,-2.2216,-2.2226,-2.2235,-2.2234,-2.2208,-2.2216,-2.2134,-2.2134,-2.2134,0,0,-2.3237,-2.3153,-2.3126,-2.3012,-2.2945,-2.2892,-2.2819,-2.2765,-2.2724,-2.2614,-2.255,-2.2484,-2.2383,-2.2331,-2.2303,-2.2276,-2.225,-2.2238,-2.2246,-2.2239,-2.2211,-2.2219,-2.2226,-2.2136,-2.2136,-2.2136,0,0,-2.3281,-2.3213,-2.318,-2.3116,-2.3017,-2.2946,-2.2939,-2.2822,-2.2776,-2.2711,-2.2628,-2.2577,-2.246,-2.2393,-2.2343,-2.2369,-2.2307,-2.2349,-2.2399,-2.2375,-2.2382,-2.2387,-2.2397,-2.2402,-2.2349,-2.2349,-2.2349,0,-2.3341,-2.326,-2.3168,-2.3121,-2.3074,-2.2978,-2.2943,-2.2884,-2.2766,-2.2735,-2.2708,-2.2563,-2.2488,-2.242,-2.2427,-2.239,-2.2377,-2.2362,-2.2389,-2.2393,-2.2396,-2.2405,-2.2409,-2.2355,-2.2354,-2.2353,-2.2353,0,-2.3339,-2.3285,-2.327,-2.3164,-2.3115,-2.3074,-2.2975,-2.2936,-2.2879,-2.2811,-2.2747,-2.2655,-2.2566,-2.2545,-2.2486,-2.2469,-2.2456,-2.2411,-2.2363,-2.2412,-2.2418,-2.242,-2.2363,-2.2361,-2.2359,-2.2358,0,0,-2.3444,-2.3294,-2.329,-2.3243,-2.313,-2.3084,-2.304,-2.2957,-2.2927,-2.285,-2.2809,-2.2716,-2.2675,-2.2619,-2.2553,-2.2532,-2.2561,-2.2489,-2.2485,-2.2507,-2.2538,-2.2573,-2.2579,-2.2521,-2.2521,-2.2521,-2.2547,0,-2.3472,-2.339,-2.3309,-2.3255,-2.3205,-2.3116,-2.3077,-2.3003,-2.2939,-2.2885,-2.2812,-2.2749,-2.2699,-2.2666,-2.2642,-2.2563,-2.2566,-2.256,-2.248,-2.2478,-2.2508,-2.2581,-2.2616,-2.2645,-2.2549,-2.2549,-2.2549,0,-2.3491,-2.3425,-2.3368,-2.3265,-2.324,-2.3207,-2.3127,-2.3077,-2.2992,-2.2947,-2.2889,-2.282,-2.2768,-2.2728,-2.2654,-2.2652,-2.2615,-2.2572,-2.2571,-2.2559,-2.2516,-2.2571,-2.2652,-2.2657,-2.2552,-2.2552,-2.2552,0,-2.3576,-2.3471,-2.3425,-2.3387,-2.3264,-2.3244,-2.3191,-2.3105,-2.3062,-2.2991,-2.2962,-2.2885,-2.2843,-2.2784,-2.2696,-2.2675,-2.2632,-2.2584,-2.2592,-2.2595,-2.2585,-2.2587,-2.2662,-2.2563,-2.2563,-2.2563,-2.2563,0,-2.3614,-2.3583,-2.3462,-2.3433,-2.3396,-2.3303,-2.3268,-2.3207,-2.3133,-2.3089,-2.3006,-2.2967,-2.2854,-2.2801,-2.2732,-2.2682,-2.2663,-2.2624,-2.2606,-2.2631,-2.2637,-2.2604,-2.26,-2.2564,-2.2564,-2.2564,-2.2563,0,-2.37,-2.3618,-2.3561,-2.3453,-2.3425,-2.3403,-2.3308,-2.3276,-2.3211,-2.3157,-2.3139,-2.3034,-2.2968,-2.2876,-2.2779,-2.2733,-2.2694,-2.2665,-2.2724,-2.2713,-2.2727,-2.2727,-2.2782,-2.2786,-2.2687,-2.2688,-2.2689,0,-2.373,-2.3705,-2.3596,-2.3564,-2.3515,-2.3463,-2.3421,-2.3329,-2.3288,-2.3193,-2.3173,-2.3102,-2.304,-2.2938,-2.2852,-2.2779,-2.2747,-2.2772,-2.2735,-2.2763,-2.2748,-2.2751,-2.2748,-2.278,-2.2782,-2.2783,-2.2784,0,-2.3791,-2.3754,-2.3698,-2.3629,-2.3583,-2.3523,-2.3459,-2.3436,-2.3331,-2.3289,-2.3224,-2.3176,-2.3082,-2.3012,-2.2929,-2.2872,-2.2811,-2.2798,-2.2795,-2.282,-2.2856,-2.2838,-2.2748,-2.2795,-2.2794,-2.2793,-2.2793,-2.2792,-2.3849,-2.3825,-2.3746,-2.3687,-2.3632,-2.3575,-2.3542,-2.3474,-2.3419,-2.3339,-2.3288,-2.3225,-2.3143,-2.3026,-2.2973,-2.2921,-2.2896,-2.2892,-2.2891,-2.2892,-2.2902,-2.2867,-2.2905,-2.2905,-2.2904,-2.2904,-2.2904,0,-2.3908,-2.3854,-2.3802,-2.3719,-2.3673,-2.3625,-2.3553,-2.3517,-2.3465,-2.3396,-2.3339,-2.3265,-2.3199,-2.311,-2.3037,-2.3013,-2.2983,-2.2997,-2.2997,-2.2985,-2.2928,-2.2937,-2.3023,-2.3023,-2.3023,-2.3022,-2.3022,-2.3022,-2.3932,-2.3889,-2.3843,-2.3771,-2.3716,-2.3658,-2.3622,-2.3569,-2.3514,-2.3438,-2.3384,-2.3329,-2.3251,-2.3173,-2.311,-2.3086,-2.3062,-2.3085,-2.3052,-2.2999,-2.2989,-2.2978,-2.2987,-2.3081,-2.3081,-2.3113,-2.3114,-2.3114]},{"header":{"parameterUnit":"m.s-1","parameterCategory":1,"la1":30.2991,"la2":30.254,"lo1":-89.0895,"lo2":-89.0444,"dy":0.0017,"dx":0.0017,"nx":28,"ny":28,"refTime":"2025-03-24T09:00:00:Z","depth":0,"parameterNumber":3,"parameterNumberName":"V-component_of_WINDS"},"data":[0,0,0,0,0,0,0,0,0,0,0,0,0,0,0,0,0,0,0,0,0,0,0,0,0,0,0,0,0,0,0,0,0,0,0,0,0,0,0,0,0,0,0,0,0,0,0,0,0,0,0,0,0,0,0,0,0,0,-2.6589,-2.659,0,-2.6683,-2.6684,-2.6685,-2.6574,-2.657,-2.6566,-2.6562,-2.6665,-2.6672,-2.6678,0,0,0,0,0,0,0,0,0,0,0,0,0,-2.6318,-2.6324,-2.6589,-2.659,-2.6591,-2.6682,-2.6684,-2.6685,-2.6575,-2.657,-2.6565,-2.656,-2.6663,-2.6671,-2.6679,0,0,0,0,0,0,0,0,0,0,0,0,0,-2.6427,-2.6326,-2.6589,-2.6547,-2.6545,-2.6682,-2.6684,-2.6685,-2.6576,-2.657,-2.6564,-2.6558,-2.666,-2.667,-2.668,-2.6865,0,0,-2.671,-2.6714,0,0,0,0,0,0,0,0,-2.642,-2.6437,-2.6552,-2.655,-2.6548,-2.661,-2.6626,-2.6746,-2.6578,-2.6564,-2.6562,-2.6555,-2.6653,-2.6663,-2.6694,-2.687,-2.6874,-2.6711,-2.6717,-2.6721,-2.6724,0,0,0,0,0,0,0,-2.6413,-2.6432,-2.6626,-2.6554,-2.6551,-2.6525,-2.6534,-2.6648,-2.6642,-2.6565,-2.6557,-2.657,-2.665,-2.6685,-2.6696,-2.6876,-2.6711,-2.6719,-2.6726,-2.6729,-2.7205,-2.7212,0,0,0,0,0,0,-2.641,-2.6426,-2.6623,-2.6629,-2.6467,-2.6535,-2.6544,-2.6597,-2.6641,-2.6641,-2.6575,-2.6564,-2.6671,-2.6684,-2.6699,-2.6917,-2.6721,-2.673,-2.6736,-2.7199,-2.7207,-2.7214,0,0,0,0,0,0,-2.6404,-2.6428,-2.6619,-2.6526,-2.6548,-2.6546,-2.6606,-2.6602,-2.6636,-2.6648,-2.6647,-2.6611,-2.6667,-2.6685,-2.6823,-2.6919,-2.6735,-2.6744,-2.7191,-2.7201,-2.7211,-2.7357,0,0,0,0,0,0,-2.6397,-2.6427,-2.6497,-2.6528,-2.6553,-2.6742,-2.6612,-2.6608,-2.6653,-2.664,-2.6682,-2.6683,-2.6663,-2.6809,-2.6833,-2.693,-2.6752,-2.7182,-2.7195,-2.7207,-2.7344,-2.7371,-2.7394,0,0,0,0,0,-2.6388,-2.6537,-2.6501,-2.6526,-2.664,-2.6748,-2.6763,-2.6735,-2.6661,-2.6732,-2.6738,-2.6682,-2.6904,-2.6824,-2.685,-2.6952,-2.7176,-2.7192,-2.7206,-2.7332,-2.7366,-2.7393,0,0,0,0,0,0,-2.6521,-2.654,-2.6501,-2.6664,-2.6705,-2.6729,-2.6818,-2.6771,-2.6836,-2.6821,-2.6785,-2.6796,-2.6943,-2.6961,-2.6871,-2.7131,-2.7028,-2.7049,-2.7115,-2.7147,-2.7171,-2.7165,-2.676,0,0,0,0,0,-2.6568,-2.6652,-2.6665,-2.6808,-2.683,-2.682,-2.6866,-2.684,-2.6882,-2.69,-2.6917,-2.6961,-2.704,-2.7094,-2.7168,-2.7344,-2.7352,-2.7426,-2.7451,-2.7472,-2.7492,-2.7585,-2.7618,-2.7264,-2.7264,-2.7263,0,0,-2.6669,-2.669,-2.6746,-2.6835,-2.6864,-2.6952,-2.6836,-2.6935,-2.7001,-2.6916,-2.7047,-2.706,-2.7107,-2.7265,-2.7335,-2.7284,-2.759,-2.7491,-2.7508,-2.7516,-2.7604,-2.7637,-2.7667,-2.7274,-2.7272,-2.727,0,0,-2.6898,-2.6922,-2.7043,-2.7072,-2.7115,-2.7107,-2.7136,-2.7166,-2.7171,-2.7301,-2.7238,-2.7316,-2.7454,-2.749,-2.7526,-2.7763,-2.7713,-2.7788,-2.7921,-2.8012,-2.804,-2.8064,-2.8149,-2.818,-2.7807,-2.7807,-2.7807,0,-2.7019,-2.7148,-2.7111,-2.7214,-2.7255,-2.7177,-2.7299,-2.733,-2.7397,-2.7427,-2.7368,-2.7537,-2.7564,-2.7727,-2.7785,-2.7816,-2.7849,-2.7785,-2.8038,-2.8063,-2.8085,-2.8166,-2.8198,-2.7816,-2.7815,-2.7814,-2.7813,0,-2.7294,-2.7385,-2.7477,-2.754,-2.759,-2.7703,-2.7683,-2.7739,-2.7708,-2.7706,-2.7838,-2.7866,-2.7943,-2.7979,-2.7952,-2.8139,-2.8106,-2.8043,-2.7939,-2.8128,-2.8203,-2.8234,-2.7829,-2.7825,-2.7823,-2.7821,0,0,-2.7614,-2.765,-2.7685,-2.7712,-2.7751,-2.7822,-2.7929,-2.8001,-2.805,-2.8097,-2.8187,-2.8303,-2.8244,-2.8285,-2.826,-2.834,-2.8525,-2.8266,-2.8267,-2.8314,-2.8733,-2.8781,-2.8818,-2.849,-2.8496,-2.85,-2.8729,0,-2.7843,-2.8028,-2.7996,-2.8176,-2.8259,-2.8184,-2.8278,-2.8313,-2.8313,-2.8384,-2.8384,-2.8467,-2.8382,-2.8406,-2.8481,-2.8487,-2.8609,-2.8469,-2.8576,-2.858,-2.8568,-2.8857,-2.8909,-2.9124,-2.8758,-2.8763,-2.8767,0,-2.8137,-2.8191,-2.8379,-2.8403,-2.8437,-2.8522,-2.8584,-2.8652,-2.8689,-2.8683,-2.8727,-2.8686,-2.8793,-2.8685,-2.8833,-2.8739,-2.8779,-2.8788,-2.8795,-2.8807,-2.8687,-2.8877,-2.9192,-2.9225,-2.8812,-2.8809,-2.8806,0,-2.8352,-2.8472,-2.8599,-2.8624,-2.8655,-2.8716,-2.8732,-2.8763,-2.8808,-2.8862,-2.8891,-2.8958,-2.8996,-2.9049,-2.9027,-2.895,-2.9179,-2.9069,-2.9179,-2.918,-2.9234,-2.9231,-2.9561,-2.9257,-2.9256,-2.9256,-2.9255,0,-2.8613,-2.8731,-2.8696,-2.8775,-2.8904,-2.8865,-2.8995,-2.9002,-2.9029,-2.9108,-2.9047,-2.9123,-2.9088,-2.9162,-2.9145,-2.927,-2.9287,-2.9286,-2.9281,-2.9293,-2.9294,-2.9322,-2.9307,-2.9264,-2.9262,-2.9261,-2.9259,0,-2.8877,-2.8858,-2.8992,-2.9008,-2.9015,-2.911,-2.9124,-2.9198,-2.9191,-2.9291,-2.9313,-2.9303,-2.9386,-2.9368,-2.946,-2.9448,-2.9606,-2.9581,-2.9593,-2.9588,-2.9699,-2.9689,-3.006,-3.0107,-2.9771,-2.9774,-2.9777,0,-2.9046,-2.9134,-2.9159,-2.9206,-2.9226,-2.9303,-2.9347,-2.9311,-2.9359,-2.9406,-2.9474,-2.9551,-2.961,-2.9746,-2.9749,-2.9818,-2.9795,-2.992,-2.9806,-2.9814,-2.9799,-2.9794,-2.9803,-2.9944,-2.9948,-2.9951,-2.9954,0,-2.9348,-2.9333,-2.9398,-2.9459,-2.9512,-2.956,-2.9601,-2.9644,-2.961,-2.9668,-2.975,-2.9796,-2.9887,-2.9964,-3.0027,-3.0044,-2.9995,-2.9989,-3.0018,-3.0033,-3.0037,-3.0037,-2.9657,-2.9982,-2.9979,-2.9977,-2.9975,-2.9974,-2.957,-2.9644,-2.9673,-2.9746,-2.9772,-2.9812,-2.9881,-2.9881,-2.9948,-3.0018,-2.9992,-3.0086,-3.0119,-3.0198,-3.0222,-3.0295,-3.0249,-3.0291,-3.0302,-3.0314,-3.0328,-3.0022,-3.0307,-3.0306,-3.0305,-3.0304,-3.0304,0,-2.987,-2.9883,-2.9951,-3.0009,-3.0067,-3.001,-3.0052,-3.0105,-3.0187,-3.022,-3.0279,-3.0372,-3.0446,-3.0451,-3.052,-3.0578,-3.0557,-3.0598,-3.0595,-3.0599,-3.0365,-3.0334,-3.0614,-3.0614,-3.0613,-3.0613,-3.0613,-3.0613,-3.0033,-3.0155,-3.0143,-3.0278,-3.029,-3.038,-3.0409,-3.0444,-3.047,-3.0577,-3.0636,-3.0638,-3.066,-3.0729,-3.0794,-3.0793,-3.0823,-3.0873,-3.0865,-3.0647,-3.0616,-3.0587,-3.0557,-3.0879,-3.0879,-3.1092,-3.1094,-3.1096]}]]